Tracking 35331 objects as of 14-Sep-2026
HD Live streaming from Space Station
objects crossing your sky now

FENGYUN 1C DEB

Track FENGYUN 1C DEB now!
10-day predictions


NORAD ID: 30381
Int'l Code: 1999-025ACU
Launch date: May 10, 1999
Source: People's Republic of China (PRC)
Launch site: Taiyaun Space Center, China (TSC)

Note: This is SATELLITE DEBRIS
Your satellite tracking list
Your tracking list is empty




NASA's NSSDC Master Catalog

Two Line Element Set (TLE):
1 30381U 99025ACU 26255.03507021  .00001121  00000-0  60599-3 0  9995
2 30381  98.7920 290.6284 0054243  19.6068 340.7174 14.13886002960274
Source of the keplerian elements: AFSPC